TimeCST,TemperatureF,Dew PointF,Humidity,Sea Level PressureIn,VisibilityMPH,Wind Direction,Wind SpeedMPH,Gust SpeedMPH,PrecipitationIn,Events,Conditions,WindDirDegrees,DateUTC
12:53 AM,19.9,15.1,81,30.06,10.0,South,11.5,-,N/A,,Clear,170,2013-01-07 06:53:00
1:53 AM,24.1,17.1,75,30.02,10.0,South,9.2,-,N/A,,Clear,190,2013-01-07 07:53:00
2:53 AM,30.0,21.0,69,30.00,10.0,SSW,17.3,-,N/A,,Clear,210,2013-01-07 08:53:00
3:53 AM,30.0,19.9,66,30.01,10.0,SSW,12.7,-,N/A,,Clear,210,2013-01-07 09:53:00
4:53 AM,26.1,19.0,75,29.99,10.0,South,8.1,-,N/A,,Clear,170,2013-01-07 10:53:00
5:53 AM,26.1,19.0,75,29.98,10.0,SSW,10.4,-,N/A,,Clear,200,2013-01-07 11:53:00
6:53 AM,30.9,21.9,69,29.99,10.0,SW,19.6,-,N/A,,Clear,230,2013-01-07 12:53:00
7:53 AM,28.9,21.0,72,29.99,10.0,SW,15.0,-,N/A,,Clear,220,2013-01-07 13:53:00
8:53 AM,28.9,21.0,72,30.01,10.0,SW,16.1,-,N/A,,Clear,220,2013-01-07 14:53:00
9:53 AM,28.9,21.9,75,30.04,10.0,SW,12.7,-,N/A,,Clear,230,2013-01-07 15:53:00
10:53 AM,30.9,24.1,76,30.05,10.0,West,15.0,-,N/A,,Clear,270,2013-01-07 16:53:00
11:53 AM,30.9,25.0,79,30.02,10.0,West,10.4,-,0.01,,Clear,260,2013-01-07 17:53:00
12:53 PM,32.0,26.1,79,30.00,10.0,WSW,10.4,-,0.01,,Clear,250,2013-01-07 18:53:00
1:53 PM,33.1,26.1,75,30.00,10.0,WSW,8.1,-,N/A,,Clear,250,2013-01-07 19:53:00
2:53 PM,32.0,26.1,79,30.01,10.0,WSW,8.1,-,N/A,,Clear,250,2013-01-07 20:53:00
3:53 PM,32.0,25.0,75,30.01,10.0,WSW,8.1,-,N/A,,Clear,250,2013-01-07 21:53:00
5:53 PM,25.0,21.9,88,30.04,10.0,West,3.5,-,N/A,,Clear,260,2013-01-07 23:53:00
6:53 PM,21.9,18.0,85,30.04,4.0,South,3.5,-,N/A,,Clear,190,2013-01-08 00:53:00
7:03 PM,21.2,17.6,86,29.99,1.8,Calm,Calm,-,N/A,,Clear,0,2013-01-08 01:03:00
7:23 PM,19.4,17.6,93,29.99,0.5,Calm,Calm,-,N/A,Fog,Light Freezing Fog,0,2013-01-08 01:23:00
7:39 PM,19.4,15.8,86,29.99,0.2,Calm,Calm,-,N/A,Fog,Light Freezing Fog,0,2013-01-08 01:39:00
7:53 PM,16.0,12.9,88,30.05,0.2,Calm,Calm,-,N/A,Fog,Light Freezing Fog,0,2013-01-08 01:53:00
8:53 PM,16.0,10.9,81,30.04,0.2,West,3.5,-,N/A,,Haze,270,2013-01-08 02:53:00
9:53 PM,15.1,8.1,74,30.04,0.5,SW,3.5,-,N/A,,Haze,220,2013-01-08 03:53:00
10:03 PM,15.8,8.6,73,29.97,2.0,Calm,Calm,-,N/A,,Haze,0,2013-01-08 04:03:00
10:20 PM,14.0,6.8,73,29.98,0.2,Calm,Calm,-,N/A,,Haze,0,2013-01-08 04:20:00
10:53 PM,15.1,9.0,77,30.03,0.2,North,4.6,-,N/A,,Haze,10,2013-01-08 04:53:00
11:53 PM,12.9,7.0,77,30.02,0.2,WNW,3.5,-,N/A,,Haze,300,2013-01-08 05:53:00